STARLINK-33749, 63716

Orbit data source: Space-Track

STARLINK-33749, 63716 is a payload satellite owned by SpaceX/Seattle (US) in LEO that was launched on Mon, 28 Apr 2025 UTC via an FALCON 9 launch vehicle from the Air Force Western Test Range (AFWTR). Payload-class satellites include a variety of spacecraft equipped with specific instruments for various scientific and technological missions. These include communications satellites like Starlink; space stations such as the ISS; scientific satellites like the Hubble; Earth observation satellites from companies like Planet Labs, Umbra, and HawkEye 360; GPS; miniature CubeSats for education and research; and military/defense satellites.

Loading next visibility...
Identifier
63716, 2025-087V
Orbit
LEO
Country
Flag of USUS
Related business
Manufacturer
SpaceX/Seattle
Mission
Operational Commercial Communications
Bus & Motor
STARLINK V2MO, Unknown motor
Mass
575 kg wet, ~530 kg dry
Launch date (UTC)
2025-04-28 (8 months ago)
Launch vehicle
FALCON 9
Launch site
Air Force Western Test Range (AFWTR)
Object type
Payload
Rocket body
Debris
Shape & HBR
Box + 2 Pan, 17.7 m
Radar Cross Section
36.964 m², Large (>1 m²)

Expand to show TLE details & history
Last TLE update: 6 hours ago

TLE from 6 hours ago
0 STARLINK-33749
1 63716U 25087V   25349.94083169  .00012264  00000-0  42548-3 0  9999
2 63716  53.1584 248.8186 0000726  83.9048 276.2036 15.30201430 36379
Epoch: 2025-12-15T22:34Z
TLE epoch observation values (Epoch: 2025-12-15T22:34:47.858Z)
Latitude
0.00005°
Longitude
-174.71296°
Altitude
476.057 km
Speed
7.629 km/s
True Right ascension
16h 35m 16s
True Declination
0° 00' 00"
Sunlit
Object was in daylight at epoch
Visualization orbit readout
Latitude
Unknown
Longitude
Unknown
Altitude
Unknown
Speed
Unknown
Apparent Right ascension
Unknown
Apparent Declination
Unknown
Sunlit
N/A
Visualization observer readout
Local Sidereal Time
03:08:09
Azimuth
Unknown
Elevation
Unknown
Doppler factor
Unknown
Orbital elements
Apogee altitude
475.965 km
Perigee altitude
474.97 km
Semi-major axis
6,853.604 km
Eccentricity
0.00007
Inclination
53.1584°
RAAN
248.8186°
Arg. of periapsis
83.9048°
True anomaly
276.19533°
Mean anomaly
276.2036°
Eccentric anomaly
276.19946°
Mean motion
3.82529 °/min
Orbital period
94.11 mins
BSTAR
0.00042548
Loading maneuver chart data...
Computing Atmospheric mass density...
Loading historical data...
Loading historical data...
Loading historical data...
Loading historical data...
Loading historical data...
Loading historical data...
Loading historical data...

Documentation

Showing up to 5 results
|